SCP
1 1 1 1 2 2 1 1 1 2 2 2 3 4 3 2 1 1 2 2 2 3 3 4 5 5 5 6 6 6 5 4 4 5 5 4 3 2 1 1 1 1 1 1
1 1 1 1 2 2 1 1 1 1 2 2 3 3 2 2 2 1 2 2 2 3 3 4 5 6 6 6 6 5 4 3 3 5 6 5 4 3 2 1 1 1 1 1
1 1 1 1 1 1 1 1 1 1 1 2 3 2 2 2 2 2 2 2 3 4 5 6 7 7 7 6 5 4 3 3 3 4 6 6 5 4 3 3 2 2 1 1
1 1 1 1 1 1 1 1 1 1 2 3 3 3 2 2 2 2 3 3 4 6 7 7 8 8 6 5 4 3 2 2 2 4 6 8 7 6 5 4 3 2 1 1
1 1 1 1 1 1 1 1 1 1 2 3 4 3 2 2 2 2 3 4 5 7 8 7 7 6 5 4 3 2 2 2 2 4 7 10 9 8 6 4 3 1 0 0
1 1 1 1 1 1 1 1 1 2 3 5 5 3 2 2 2 3 4 5 6 7 7 6 5 5 4 3 3 2 2 2 2 4 8 11 10 8 5 3 2 1 0 0
1 1 1 1 1 1 1 1 1 3 4 5 5 3 2 2 2 3 4 5 5 5 5 4 4 4 3 3 2 2 2 2 2 4 8 10 9 6 3 2 1 1 0 0
1 1 1 1 2 1 1 1 2 3 4 4 3 2 2 2 2 3 3 4 4 3 3 3 3 3 2 2 2 1 2 2 2 4 7 7 5 3 2 2 1 1 1 0
0 0 0 1 1 1 1 1 2 2 3 3 2 2 3 3 3 3 3 3 3 2 2 2 2 2 2 2 1 1 1 2 2 3 4 4 3 2 2 2 2 1 1 1
0 0 0 0 0 0 1 1 1 2 2 3 3 4 4 4 5 4 3 2 2 2 1 1 1 2 1 1 1 1 1 1 2 2 2 2 1 2 2 2 2 1 1 1
0 0 0 0 0 0 1 1 1 2 3 4 4 5 5 5 5 4 3 2 2 2 1 1 1 1 1 1 2 1 1 1 1 2 1 1 1 2 2 2 2 1 1 1
0 0 0 0 0 1 1 1 1 2 3 4 4 5 5 5 4 3 3 3 3 2 2 1 1 1 1 2 2 2 1 1 1 1 1 1 1 1 1 1 1 1 1 0
0 0 0 0 0 1 1 2 2 2 2 3 4 5 6 5 4 4 3 3 3 3 2 1 1 1 1 1 2 1 1 0 0 0 1 1 1 1 1 0 0 0 0 0
0 0 0 0 1 1 2 3 3 2 2 2 4 6 6 6 5 4 3 3 3 3 2 2 1 1 1 1 1 1 1 0 0 0 1 1 1 1 1 1 0 0 0 0
0 0 0 0 1 1 3 4 4 2 2 2 5 7 8 7 5 4 4 4 3 3 2 2 1 1 1 1 1 0 0 0 0 0 1 1 1 1 1 1 1 1 0 0
0 0 0 1 1 1 3 5 4 3 3 5 7 9 9 7 6 5 4 4 3 2 2 2 1 1 0 0 0 0 0 0 0 0 0 1 1 1 0 0 1 1 0 0
0 0 0 1 1 1 3 5 5 5 7 9 10 11 10 8 6 5 4 4 3 2 2 1 1 0 0 0 0 0 0 0 0 0 0 0 0 0 0 0 0 0 0 0
0 0 0 0 1 1 3 4 5 6 8 10 11 11 9 7 5 5 4 4 3 2 2 1 1 1 0 0 0 0 0 0 0 0 0 0 0 0 0 0 0 0 0 0
0 1 1 1 1 1 1 1 2 4 6 7 8 8 7 6 5 4 4 3 3 2 2 1 1 1 1 0 0 0 0 0 0 0 0 0 0 0 0 0 0 0 0 0
0 1 1 1 1 1 0 0 0 1 3 4 5 6 5 5 4 4 4 3 2 2 2 1 1 1 1 1 0 0 0 0 0 0 0 0 0 0 0 0 0 0 0 0
0 0 1 1 1 1 1 1 1 2 3 4 4 5 5 5 4 4 4 3 2 1 1 1 1 1 1 1 0 0 0 0 0 0 0 0 0 0 0 0 1 1 1 0
0 0 0 0 1 1 1 2 3 4 5 5 4 5 5 5 4 4 4 3 2 1 1 1 1 1 1 1 1 1 0 0 0 0 0 0 0 0 0 0 1 1 0 0
0 0 1 1 1 2 3 4 5 5 5 4 4 4 5 4 4 4 3 2 1 0 0 1 1 1 1 1 1 1 1 0 0 0 0 0 0 0 0 0 0 0 0 0
0 1 2 2 3 3 4 5 5 5 4 4 3 4 4 4 4 3 3 1 0 0 0 0 1 1 0 1 1 1 1 0 0 0 0 0 0 0 0 0 0 0 0 0
1 2 3 3 3 3 3 3 3 3 3 3 3 3 3 3 3 2 1 1 0 0 0 0 0 0 0 0 1 1 1 0 0 0 0 0 0 0 0 0 0 0 0 0
3 4 4 3 3 2 2 2 1 2 2 2 2 2 1 1 1 1 0 0 0 0 0 0 0 0 0 0 0 1 1 1 0 0 0 0 0 0 0 0 0 0 0 0
4 4 4 3 3 2 2 1 1 1 1 1 1 1 0 0 0 0 0 0 0 0 0 0 0 0 0 0 0 1 1 1 0 0 0 0 0 0 0 0 0 0 0 0
Wind_Speed
4 4 3 2 2 0 3 6 6 6 7 7 7 8 7 7 8 8 7 7 7 6 5 5 5 5 5 5 4 4 4 4 4 3 3 3 3 3 3 3 4 3 4 3
1 1 1 1 2 1 1 3 5 5 4 3 6 5 6 7 9 9 8 8 6 6 7 6 5 5 5 5 4 4 4 4 3 4 4 4 4 3 3 3 3 4 4 3
2 2 2 2 3 3 1 2 5 5 5 5 6 7 8 8 9 9 9 8 7 7 7 6 6 6 6 6 5 4 3 3 4 4 4 3 4 4 4 3 3 4 4 4
2 1 3 5 2 3 3 1 1 3 4 8 8 7 6 7 8 8 8 7 6 5 5 5 4 5 5 5 5 5 4 3 3 4 3 3 4 3 3 3 3 3 3 3
3 2 2 2 1 1 3 0 1 4 4 5 6 6 2 2 5 7 8 7 6 5 5 5 5 5 6 5 4 4 4 3 3 4 4 4 4 3 3 3 3 2 2 3
3 3 4 4 4 2 4 1 1 4 5 7 7 4 4 3 3 4 4 5 5 5 4 5 5 5 6 5 4 4 4 4 3 4 5 4 4 3 3 3 3 3 2 2
3 3 3 4 5 3 3 5 2 3 6 6 5 5 5 4 3 5 5 5 6 5 4 4 4 5 5 4 4 3 3 3 3 3 4 5 4 3 3 3 3 3 2 1
3 3 5 4 3 3 3 2 1 2 4 4 4 4 5 6 6 6 5 4 5 5 3 3 4 5 5 4 3 3 3 3 3 3 4 4 4 3 3 4 3 2 2 1
3 4 2 1 2 1 2 2 0 1 2 4 5 5 5 6 6 5 6 4 4 5 4 2 3 4 5 3 3 3 3 3 3 3 2 3 4 4 3 3 3 2 2 2
3 1 1 2 3 3 3 2 1 2 2 4 5 6 5 5 5 4 4 4 4 5 4 3 2 3 4 4 4 4 4 3 3 3 2 2 2 3 3 3 3 3 3 2
2 0 3 4 3 3 4 4 3 2 2 4 6 6 5 5 5 4 4 4 5 5 5 4 3 3 3 4 5 5 4 3 3 2 3 2 2 2 3 3 5 6 4 4
3 3 2 2 2 2 3 3 2 2 3 2 4 5 4 5 4 5 5 4 4 4 4 4 3 3 3 3 5 5 4 3 2 2 2 2 2 1 2 1 4 6 6 5
3 2 2 1 1 2 1 1 1 2 3 3 3 4 5 4 4 5 5 5 5 5 5 4 3 2 2 3 4 5 4 3 3 3 3 3 3 3 1 1 1 1 5 6
3 4 3 1 1 2 3 3 3 3 3 3 3 3 4 4 5 6 5 5 5 4 4 4 3 2 2 3 4 4 4 3 3 3 3 3 3 3 3 3 2 1 2 4
3 3 3 1 2 3 4 4 4 3 3 3 3 4 5 5 4 4 4 4 5 4 3 3 3 2 2 3 3 3 3 2 2 2 2 3 3 2 2 3 2 2 1 1
2 3 3 3 3 4 4 4 4 3 3 3 3 3 4 4 4 3 4 4 5 4 3 4 3 2 2 3 3 2 2 3 3 2 2 2 2 3 2 3 3 2 3 3
4 2 3 2 2 2 3 3 3 3 3 4 4 4 5 5 5 4 3 3 4 3 3 3 3 2 2 3 2 2 2 2 2 2 2 2 3 3 3 3 3 3 3 4
3 2 2 3 2 3 4 4 4 4 3 3 4 5 5 5 4 3 3 3 3 3 2 2 2 2 2 2 2 1 1 1 2 2 2 2 2 2 2 2 3 3 2 2
4 3 3 3 3 4 4 3 3 3 3 3 4 4 4 4 3 3 3 4 3 2 0 1 2 3 2 1 1 1 1 1 1 1 2 2 2 2 2 2 2 2 2 2
4 4 5 5 5 4 4 3 3 3 3 3 4 4 4 3 3 3 3 2 1 1 1 1 2 2 1 1 1 1 1 0 1 1 1 1 1 2 2 1 1 1 2 2
4 5 5 5 4 4 4 4 3 3 3 3 4 4 3 2 2 3 3 2 2 1 1 2 1 1 1 1 1 1 1 1 1 1 1 2 2 1 1 1 2 1 1 1
3 4 4 4 4 4 3 3 4 4 4 4 3 3 4 3 3 3 2 1 0 2 2 1 1 1 1 1 1 1 1 1 1 1 1 2 2 2 1 1 1 1 2 2
3 3 3 3 3 3 3 3 3 3 3 3 3 3 3 2 2 2 1 1 1 2 2 1 1 1 1 1 1 1 1 1 1 1 1 2 2 2 2 1 1 1 1 1
2 2 2 2 4 4 3 2 3 3 3 3 3 3 3 2 2 1 0 1 2 2 1 1 1 1 0 0 1 1 1 1 1 2 2 1 1 1 2 2 1 1 1 2
1 2 2 3 3 2 1 2 3 3 3 2 2 2 1 2 2 1 1 1 2 2 1 2 2 2 1 1 1 1 1 1 1 2 2 2 2 2 2 2 2 2 2 2
1 1 1 1 1 1 1 2 2 2 2 2 2 1 1 1 1 1 1 1 2 1 1 1 2 2 1 2 2 1 1 2 2 2 2 2 3 2 2 2 2 2 2 2
2 2 2 2 2 1 2 2 2 1 1 2 1 1 1 1 1 1 1 1 1 1 1 1 1 1 1 1 1 1 1 1 2 2 2 2 2 2 2 2 2 2 2 2
Wind_Direction
208 199 167 207 252 192 151 178 180 201 192 197 184 173 167 152 140 136 144 145 151 154 152 150 145 147 145 141 136 137 142 146 162 161 148 140 129 121 111 106 111 112 104 103
289 228 174 257 256 255 209 190 179 173 211 186 150 127 133 145 144 148 156 158 159 157 154 156 155 149 140 138 134 125 137 150 151 145 143 139 138 126 114 107 109 105 101 96
244 265 21 285 252 197 185 217 175 191 207 145 135 149 160 159 158 167 167 166 167 167 164 166 164 150 145 141 131 126 131 134 140 143 139 138 135 127 127 126 114 104 99 99
173 121 213 239 245 128 130 58 132 132 145 146 156 164 164 160 156 161 161 162 164 165 166 162 149 139 140 134 132 135 135 140 144 143 142 137 126 132 132 124 120 113 109 110
135 170 244 281 299 185 155 336 23 126 134 136 125 99 96 162 156 167 163 161 163 168 161 151 146 144 137 136 136 142 153 158 159 152 145 142 143 145 134 124 122 127 130 124
136 157 212 251 287 281 117 205 285 131 138 141 120 130 208 189 155 151 145 146 149 151 138 142 156 147 140 147 147 159 171 170 168 161 153 154 158 152 137 131 137 139 131 129
156 181 246 285 309 35 135 223 236 156 151 148 160 181 178 159 146 137 136 140 138 133 138 157 156 138 138 144 164 180 168 155 152 162 160 157 153 149 142 136 129 127 129 122
146 172 243 315 44 97 209 251 218 160 154 137 137 134 142 154 151 139 131 133 135 133 135 153 148 139 142 162 180 157 144 143 146 155 163 154 149 149 147 144 138 136 128 115
160 196 238 15 115 183 160 133 131 141 157 141 141 148 150 147 147 146 143 147 144 137 128 131 142 143 148 172 161 137 129 139 143 144 144 150 155 159 154 152 149 156 150 155
89 64 33 30 40 35 52 62 39 104 126 138 140 143 140 142 142 139 136 139 136 130 130 140 151 149 159 158 146 136 138 145 149 145 145 148 154 160 160 168 164 165 166 175
101 265 18 9 18 38 39 29 29 69 100 131 135 142 147 147 147 146 140 137 141 145 149 157 156 153 158 154 143 141 146 149 150 150 149 157 160 167 173 188 183 177 183 180
203 216 167 249 306 43 59 13 354 63 54 89 133 145 148 148 149 144 140 134 135 142 145 147 142 149 158 155 147 146 150 160 163 160 152 151 141 75 32 178 193 193 190 181
180 180 157 200 348 44 78 27 35 81 99 91 109 141 145 143 144 142 140 140 148 157 161 156 143 144 172 162 149 151 159 175 174 169 166 165 165 157 157 359 4 228 210 203
116 100 90 61 50 36 56 70 78 67 83 99 119 128 130 126 130 135 147 158 156 151 155 158 153 168 189 156 148 157 164 173 172 183 183 177 178 177 175 173 188 273 265 224
83 107 135 119 55 46 53 76 83 75 77 81 99 113 120 122 132 143 149 141 129 129 145 155 155 183 175 143 140 155 160 169 176 185 182 171 171 173 174 173 179 197 222 261
79 82 89 84 78 57 52 68 88 97 101 106 106 114 127 129 130 136 140 135 138 152 167 163 164 180 162 142 144 155 169 177 175 178 173 166 168 172 178 178 183 190 208 210
89 86 94 80 64 64 62 63 91 101 111 112 109 113 113 110 103 101 111 129 140 147 146 141 154 162 139 140 151 170 180 186 187 171 178 177 176 181 186 184 189 200 216 209
106 120 132 140 123 87 67 61 72 67 75 103 103 99 101 104 108 107 105 104 105 92 98 126 127 119 119 133 148 164 173 187 195 198 188 184 188 187 189 193 196 200 217 212
74 84 87 91 97 99 91 77 68 64 62 81 97 100 102 100 100 99 92 90 94 94 60 124 127 122 123 130 132 140 152 194 204 207 187 187 191 190 195 197 197 198 194 187
73 70 67 78 85 89 95 92 84 80 78 85 92 87 76 71 79 87 86 82 106 183 203 144 133 132 157 177 143 119 121 147 171 181 173 175 178 177 174 169 167 179 183 184
76 70 66 68 80 87 94 103 107 95 82 87 97 101 99 90 89 91 87 61 351 11 56 109 117 125 158 156 146 127 149 179 214 213 194 193 185 176 174 169 155 154 158 162
64 70 72 71 77 75 73 84 92 88 79 75 78 81 81 77 71 73 80 105 15 33 50 65 74 112 145 143 147 166 179 205 205 184 176 180 174 167 168 163 160 159 159 162
60 67 68 79 91 86 67 70 82 89 90 89 84 81 84 82 83 91 57 347 21 31 39 24 356 6 224 178 184 189 196 191 171 154 154 161 159 159 159 159 156 156 160 154
63 64 75 82 83 81 69 55 66 77 85 82 84 96 102 92 55 48 127 20 17 9 5 341 357 17 6 219 186 178 178 169 159 144 136 132 139 148 144 136 127 113 107 101
120 94 79 73 75 80 94 86 69 67 73 67 61 70 90 121 128 127 58 30 16 23 9 0 4 359 11 33 51 65 91 107 103 105 100 101 105 103 102 113 118 111 100 96
88 90 100 110 111 113 100 81 66 61 76 68 39 22 28 37 69 75 68 34 8 11 16 7 10 29 42 51 52 62 84 87 84 84 93 97 100 96 90 95 99 104 105 104
78 69 62 49 40 79 112 110 103 91 90 102 71 14 38 80 73 51 39 34 28 8 3 5 14 29 38 53 71 87 97 107 114 113 113 109 107 107 112 112 113 109 109 109